This is the latest recevied weather packets stored in our database for station/object dl9mfl-6. If no packets are shown the sender has not sent any weather packets the latest 1 day(s).
| Time | Temp. | Humidity | Pressure | Rain* | Wind** | Luminosity | Snow |
|---|---|---|---|---|---|---|---|
| 1778078549 | 16.67° C | 68% | 1002.7 hPa | 0 mm | - | - | - |
| 1778078069 | 16.11° C | 68% | 1002.6 hPa | 0 mm | - | - | - |
| 1778077946 | 16.11° C | 69% | 1002.6 hPa | 0 mm | - | - | - |
| 1778076845 | 15.56° C | 70% | 1003.2 hPa | 0 mm | - | - | - |
| 1778076380 | 15.56° C | 67% | 1003.4 hPa | 0 mm | - | - | - |
| 1778076372 | 15.56° C | 68% | 1003.3 hPa | 0 mm | - | - | - |
| 1778076062 | 15.56° C | 66% | 1003.3 hPa | 0 mm | - | - | - |
| 1778075946 | 15.56° C | 67% | 1003.2 hPa | 0 mm | - | - | - |
| 1778075761 | 15.56° C | 66% | 1003.2 hPa | 0 mm | - | - | - |
| 1778075701 | 15.56° C | 68% | 1003.3 hPa | 0 mm | - | - | - |
| 1778075581 | 15° C | 69% | 1003.3 hPa | 0 mm | - | - | - |
| 1778075521 | 15° C | 70% | 1003.3 hPa | 0 mm | - | - | - |
| 1778075281 | 15° C | 70% | 1003.5 hPa | 0 mm | - | - | - |
| 1778075221 | 15° C | 69% | 1003.6 hPa | 0 mm | - | - | - |
| 1778074801 | 15.56° C | 67% | 1003.5 hPa | 0 mm | - | - | - |
| 1778074745 | 15.56° C | 68% | 1003.5 hPa | 0 mm | - | - | - |
| 1778074561 | 15.56° C | 68% | 1003.5 hPa | 0 mm | - | - | - |
| 1778074501 | 15.56° C | 69% | 1003.4 hPa | 0 mm | - | - | - |
| 1778074382 | 15.56° C | 68% | 1003.4 hPa | 0 mm | - | - | - |
| 1778074281 | 15.56° C | 69% | 1003.4 hPa | 0 mm | - | - | - |
| 1778074277 | 15.56° C | 71% | 1003.4 hPa | 0 mm | - | - | - |
| 1778074273 | 15.56° C | 69% | 1003.4 hPa | 0 mm | - | - | - |
| 1778073976 | 15.56° C | 70% | 1003.3 hPa | 0 mm | - | - | - |
| 1778073972 | 15.56° C | 69% | 1003.3 hPa | 0 mm | - | - | - |
| 1778073781 | 15.56° C | 69% | 1003.3 hPa | 0 mm | - | - | - |
* Rain latest hour (hover to see other rain measurements)
** Current wind speed in m/s (hover to see current wind gust speed)